• In Uzbekistan
  • List of Countries
  • For 7 days
  • Water Temperature
  • Satellite Maps
  • Weather Map
  • Weather Widgets
  • user-avatar
    Login

    Hourly Weather Nyiregyhaza

    Today, 12 December, Tuesday

    Time Temperature Precipitation Wind Pressure Humidity
    00:00 +5°C° 0 mm 8 mps 746 mmHg 74%
    01:00 +5°C° 0 mm 8 mps 746 mmHg 74%
    02:00 +5°C° 0 mm 7 mps 746 mmHg 74%
    03:00 +5°C° 0 mm 7 mps 746 mmHg 74%
    04:00 +6°C° 0 mm 7 mps 746 mmHg 74%
    05:00 +6°C° 0 mm 7 mps 746 mmHg 74%
    06:00 +6°C° 0 mm 7 mps 746 mmHg 74%
    07:00 +6°C° 0 mm 7 mps 746 mmHg 75%
    08:00 +8°C° 0 mm 7 mps 747 mmHg 73%
    09:00 +9°C° 0 mm 8 mps 747 mmHg 72%
    10:00 +10°C° 0 mm 8 mps 748 mmHg 70%
    11:00 +10°C° 0 mm 8 mps 748 mmHg 69%
    12:00 +11°C° 0 mm 7 mps 748 mmHg 67%
    13:00 +12°C° 0 mm 7 mps 748 mmHg 66%
    14:00 +11°C° 0 mm 7 mps 749 mmHg 68%
    15:00 +11°C° 0 mm 6 mps 749 mmHg 70%
    16:00 +10°C° 0 mm 6 mps 750 mmHg 73%
    17:00 +10°C° 0.1 mm 6 mps 750 mmHg 74%
    18:00 +9°C° 0.1 mm 5 mps 750 mmHg 75%
    19:00 +9°C° 0.1 mm 5 mps 751 mmHg 76%
    20:00 +9°C° 0.2 mm 5 mps 751 mmHg 79%
    21:00 +8°C° 0.2 mm 4 mps 751 mmHg 81%
    22:00 +8°C° 0.2 mm 4 mps 752 mmHg 84%
    23:00 +8°C° 0.3 mm 3 mps 752 mmHg 85%

    Tomorrow, 13 December, Wednesday

    Time Temperature Precipitation Wind Pressure Humidity
    00:00 +8°C° 0.3 mm 3 mps 752 mmHg 87%
    01:00 +8°C° 0.3 mm 3 mps 753 mmHg 89%
    02:00 +7°C° 1 mm 3 mps 753 mmHg 88%
    03:00 +5°C° 1 mm 4 mps 753 mmHg 87%
    04:00 +5°C° 1 mm 4 mps 753 mmHg 86%
    05:00 +4°C° 0.6 mm 4 mps 753 mmHg 85%
    06:00 +3°C° 0.6 mm 5 mps 754 mmHg 83%
    07:00 +2°C° 0.6 mm 5 mps 754 mmHg 81%
    08:00 +4°C° 0.2 mm 4 mps 754 mmHg 79%
    09:00 +4°C° 0.2 mm 4 mps 754 mmHg 78%
    10:00 +4°C° 0.2 mm 4 mps 755 mmHg 76%
    11:00 +4°C° 0.1 mm 3 mps 754 mmHg 75%
    12:00 +4°C° 0.1 mm 3 mps 754 mmHg 73%
    13:00 +5°C° 0.1 mm 2 mps 754 mmHg 72%
    14:00 +5°C° 0 mm 2 mps 754 mmHg 74%
    15:00 +5°C° 0 mm 2 mps 753 mmHg 76%
    16:00 +5°C° 0 mm 1 mps 753 mmHg 79%
    17:00 +5°C° 0 mm 1 mps 753 mmHg 80%
    18:00 +4°C° 0 mm 1 mps 753 mmHg 82%
    19:00 +4°C° 0 mm 1 mps 753 mmHg 83%
    20:00 +4°C° 0 mm 1 mps 753 mmHg 84%
    21:00 +3°C° 0 mm 1 mps 753 mmHg 86%
    22:00 +2°C° 0 mm 2 mps 753 mmHg 87%
    23:00 +2°C° 0 mm 2 mps 752 mmHg 88%

    Day after tomorrow, 14 December, Thursday

    Time Temperature Precipitation Wind Pressure Humidity
    00:00 +2°C° 0 mm 2 mps 752 mmHg 88%
    01:00 +1°C° 0 mm 2 mps 752 mmHg 89%
    02:00 +1°C° 0 mm 2 mps 751 mmHg 89%
    03:00 0°C° 0 mm 3 mps 751 mmHg 89%
    04:00 0°C° 0 mm 3 mps 750 mmHg 89%
    05:00 0°C° 0 mm 3 mps 750 mmHg 89%
    06:00 -1°C° 0 mm 4 mps 750 mmHg 89%
    07:00 -1°C° 0 mm 4 mps 750 mmHg 89%
    08:00 0°C° 0 mm 4 mps 750 mmHg 86%
    09:00 +1°C° 0 mm 5 mps 750 mmHg 83%
    10:00 +2°C° 0 mm 5 mps 750 mmHg 80%
    11:00 +2°C° 0.1 mm 5 mps 749 mmHg 79%
    12:00 +3°C° 0.1 mm 5 mps 749 mmHg 78%
    13:00 +4°C° 0.1 mm 4 mps 748 mmHg 76%
    14:00 +4°C° 0.4 mm 4 mps 748 mmHg 80%
    15:00 +4°C° 0.4 mm 3 mps 748 mmHg 83%
    16:00 +4°C° 0.4 mm 2 mps 748 mmHg 87%
    17:00 +4°C° 0.6 mm 2 mps 748 mmHg 89%
    18:00 +4°C° 0.6 mm 2 mps 747 mmHg 91%
    19:00 +4°C° 0.6 mm 2 mps 747 mmHg 92%
    20:00 +4°C° 0.7 mm 2 mps 747 mmHg 94%
    21:00 +4°C° 0.7 mm 2 mps 746 mmHg 95%
    22:00 +4°C° 0.7 mm 2 mps 746 mmHg 96%
    23:00 +4°C° 0.5 mm 2 mps 745 mmHg 96%

    15 December, Friday

    Time Temperature Precipitation Wind Pressure Humidity
    00:00 +3°C° 0.5 mm 3 mps 744 mmHg 96%
    01:00 +3°C° 0.5 mm 3 mps 744 mmHg 96%
    02:00 +4°C° 0.4 mm 3 mps 743 mmHg 95%
    03:00 +4°C° 0.4 mm 4 mps 742 mmHg 94%
    04:00 +4°C° 0.4 mm 4 mps 742 mmHg 93%
    05:00 +5°C° 0.1 mm 4 mps 742 mmHg 93%
    06:00 +5°C° 0.1 mm 4 mps 742 mmHg 93%
    07:00 +5°C° 0.1 mm 4 mps 742 mmHg 93%
    08:00 +6°C° 0.1 mm 5 mps 742 mmHg 91%
    09:00 +6°C° 0.1 mm 5 mps 743 mmHg 89%
    10:00 +5°C° 0.1 mm 6 mps 743 mmHg 87%
    11:00 +7°C° 0 mm 5 mps 743 mmHg 83%
    12:00 +7°C° 0 mm 5 mps 743 mmHg 79%
    13:00 +7°C° 0 mm 4 mps 743 mmHg 74%
    14:00 +7°C° 0 mm 3 mps 743 mmHg 77%
    15:00 +7°C° 0 mm 2 mps 743 mmHg 80%
    16:00 +7°C° 0 mm 1 mps 743 mmHg 83%
    17:00 +6°C° 1.2 mm 2 mps 743 mmHg 85%
    18:00 +5°C° 1.2 mm 2 mps 742 mmHg 87%
    19:00 +4°C° 1.2 mm 3 mps 742 mmHg 90%
    20:00 +4°C° 2.5 mm 3 mps 741 mmHg 90%
    21:00 +4°C° 2.5 mm 4 mps 740 mmHg 90%
    22:00 +4°C° 2.5 mm 4 mps 740 mmHg 91%
    23:00 +4°C° 1.4 mm 4 mps 739 mmHg 91%

    16 December, Saturday

    Time Temperature Precipitation Wind Pressure Humidity
    00:00 +4°C° 1.4 mm 4 mps 739 mmHg 91%
    01:00 +4°C° 1.4 mm 4 mps 739 mmHg 91%
    02:00 +4°C° 0.4 mm 4 mps 739 mmHg 91%
    03:00 +4°C° 0.4 mm 4 mps 739 mmHg 90%
    04:00 +4°C° 0.4 mm 4 mps 739 mmHg 90%
    05:00 +4°C° 0 mm 4 mps 740 mmHg 89%
    06:00 +3°C° 0 mm 3 mps 740 mmHg 89%
    07:00 +3°C° 0 mm 3 mps 740 mmHg 88%
    08:00 +3°C° 0 mm 3 mps 741 mmHg 86%
    09:00 +4°C° 0 mm 2 mps 742 mmHg 84%
    10:00 +4°C° 0 mm 2 mps 742 mmHg 82%
    11:00 +4°C° 0.2 mm 2 mps 742 mmHg 82%
    12:00 +4°C° 0.2 mm 2 mps 742 mmHg 82%
    13:00 +4°C° 0.2 mm 2 mps 743 mmHg 81%
    14:00 +4°C° 0.1 mm 2 mps 743 mmHg 82%
    15:00 +4°C° 0.1 mm 2 mps 743 mmHg 83%
    16:00 +4°C° 0.1 mm 2 mps 744 mmHg 84%
    17:00 +4°C° 0.1 mm 2 mps 744 mmHg 84%
    18:00 +3°C° 0.1 mm 2 mps 745 mmHg 83%
    19:00 +3°C° 0.1 mm 2 mps 745 mmHg 83%
    20:00 +3°C° 0 mm 2 mps 746 mmHg 84%
    21:00 +2°C° 0 mm 2 mps 746 mmHg 84%
    22:00 +2°C° 0 mm 2 mps 746 mmHg 85%
    23:00 +2°C° 0 mm 2 mps 747 mmHg 85%

    17 December, Sunday

    Time Temperature Precipitation Wind Pressure Humidity
    00:00 +1°C° 0 mm 2 mps 747 mmHg 85%
    01:00 +1°C° 0 mm 2 mps 747 mmHg 85%
    02:00 +1°C° 0 mm 2 mps 747 mmHg 85%
    03:00 +1°C° 0 mm 2 mps 748 mmHg 85%
    04:00 -1°C° 0 mm 2 mps 748 mmHg 85%
    05:00 -1°C° 0 mm 2 mps 748 mmHg 85%
    06:00 -1°C° 0 mm 2 mps 749 mmHg 84%
    07:00 -1°C° 0 mm 2 mps 749 mmHg 83%
    08:00 +1°C° 0 mm 2 mps 749 mmHg 80%
    09:00 +1°C° 0 mm 2 mps 749 mmHg 76%
    10:00 +2°C° 0 mm 2 mps 750 mmHg 73%
    11:00 +3°C° 0 mm 2 mps 750 mmHg 71%
    12:00 +3°C° 0 mm 2 mps 750 mmHg 70%
    13:00 +4°C° 0 mm 2 mps 750 mmHg 69%
    14:00 +3°C° 0 mm 2 mps 750 mmHg 73%
    15:00 +2°C° 0 mm 2 mps 750 mmHg 77%
    16:00 +2°C° 0 mm 1 mps 751 mmHg 81%
    17:00 +1°C° 0 mm 2 mps 751 mmHg 82%
    18:00 +1°C° 0 mm 2 mps 752 mmHg 84%
    19:00 -1°C° 0 mm 2 mps 752 mmHg 86%
    20:00 -1°C° 0 mm 2 mps 753 mmHg 87%
    21:00 -1°C° 0 mm 2 mps 753 mmHg 88%
    22:00 -1°C° 0 mm 2 mps 753 mmHg 88%
    23:00 -1°C° 0 mm 2 mps 753 mmHg 88%
    Show more